When you browse on this site, cookies collect data to enhance your experience and personalize the content and advertising you see.
Visit our Privacy Policy to learn more. By continuing to use the site, you agree to this use of cookies and data.

Meteo pe oră la Sokolihino

Astăzi, 9 Iulie, Joi

Timp Temperatura Precipitaţii Vânt Presiune Umiditate
00:00 +12°C° 0 mm 1 m/s 738 mmHg 87%
01:00 +11°C° 0 mm 1 m/s 738 mmHg 88%
02:00 +11°C° 0 mm 1 m/s 738 mmHg 90%
03:00 +11°C° 0 mm 1 m/s 738 mmHg 91%
04:00 +10°C° 0 mm 2 m/s 738 mmHg 92%
05:00 +10°C° 0 mm 2 m/s 738 mmHg 92%
06:00 +12°C° 0.3 mm 2 m/s 738 mmHg 93%
07:00 +12°C° 0.3 mm 2 m/s 738 mmHg 93%
08:00 +13°C° 0 mm 2 m/s 739 mmHg 93%
09:00 +14°C° 0.3 mm 2 m/s 739 mmHg 84%
10:00 +16°C° 0.3 mm 3 m/s 739 mmHg 75%
11:00 +17°C° 0.3 mm 4 m/s 740 mmHg 66%
12:00 +18°C° 0 mm 4 m/s 740 mmHg 59%
13:00 +18°C° 0 mm 4 m/s 740 mmHg 52%
14:00 +19°C° 0 mm 4 m/s 741 mmHg 46%
15:00 +19°C° 0 mm 4 m/s 741 mmHg 47%
16:00 +19°C° 0 mm 3 m/s 741 mmHg 47%
17:00 +19°C° 0 mm 3 m/s 741 mmHg 48%
18:00 +17°C° 0 mm 3 m/s 741 mmHg 57%
19:00 +16°C° 0 mm 2 m/s 741 mmHg 67%
20:00 +14°C° 0 mm 2 m/s 741 mmHg 76%
21:00 +13°C° 0 mm 2 m/s 741 mmHg 80%
22:00 +12°C° 0 mm 2 m/s 741 mmHg 85%
23:00 +10°C° 0 mm 2 m/s 742 mmHg 89%

Mâine, 10 Iulie, Vineri

Timp Temperatura Precipitaţii Vânt Presiune Umiditate
00:00 +9°C° 0 mm 2 m/s 742 mmHg 91%
01:00 +9°C° 0 mm 2 m/s 742 mmHg 93%
02:00 +8°C° 0 mm 2 m/s 742 mmHg 95%
03:00 +9°C° 0 mm 2 m/s 742 mmHg 93%
04:00 +9°C° 0 mm 2 m/s 742 mmHg 92%
05:00 +10°C° 0 mm 2 m/s 742 mmHg 90%
06:00 +13°C° 0 mm 2 m/s 742 mmHg 83%
07:00 +13°C° 0 mm 3 m/s 742 mmHg 76%
08:00 +16°C° 0 mm 3 m/s 742 mmHg 69%
09:00 +17°C° 0 mm 4 m/s 742 mmHg 66%
10:00 +18°C° 0 mm 4 m/s 742 mmHg 64%
11:00 +18°C° 0 mm 4 m/s 742 mmHg 61%
12:00 +17°C° 1.1 mm 4 m/s 741 mmHg 73%
13:00 +15°C° 1.1 mm 5 m/s 741 mmHg 84%
14:00 +13°C° 1.1 mm 5 m/s 741 mmHg 96%
15:00 +14°C° 0.5 mm 5 m/s 740 mmHg 96%
16:00 +14°C° 0.5 mm 4 m/s 740 mmHg 96%
17:00 +15°C° 0.5 mm 4 m/s 740 mmHg 96%
18:00 +15°C° 0.4 mm 4 m/s 739 mmHg 96%
19:00 +17°C° 0.4 mm 4 m/s 739 mmHg 96%
20:00 +17°C° 0.4 mm 3 m/s 739 mmHg 96%
21:00 +17°C° 0.1 mm 3 m/s 739 mmHg 97%
22:00 +17°C° 0.1 mm 3 m/s 739 mmHg 97%
23:00 +16°C° 0.1 mm 3 m/s 739 mmHg 98%

Poimâine, 11 Iulie, Sâmbătă

Timp Temperatura Precipitaţii Vânt Presiune Umiditate
00:00 +16°C° 0 mm 3 m/s 739 mmHg 98%
01:00 +16°C° 0 mm 3 m/s 739 mmHg 98%
02:00 +16°C° 0 mm 2 m/s 740 mmHg 98%
03:00 +16°C° 0 mm 3 m/s 739 mmHg 98%
04:00 +17°C° 0 mm 3 m/s 739 mmHg 98%
05:00 +17°C° 0 mm 3 m/s 739 mmHg 98%
06:00 +18°C° 0 mm 4 m/s 739 mmHg 96%
07:00 +19°C° 0 mm 4 m/s 739 mmHg 93%
08:00 +20°C° 0 mm 5 m/s 739 mmHg 91%
09:00 +21°C° 0.1 mm 5 m/s 739 mmHg 87%
10:00 +22°C° 0.1 mm 5 m/s 739 mmHg 82%
11:00 +23°C° 0.1 mm 6 m/s 740 mmHg 78%
12:00 +24°C° 0.3 mm 6 m/s 740 mmHg 72%
13:00 +24°C° 0.3 mm 6 m/s 740 mmHg 67%
14:00 +26°C° 0.3 mm 6 m/s 741 mmHg 62%
15:00 +25°C° 0 mm 5 m/s 741 mmHg 60%
16:00 +25°C° 0 mm 4 m/s 741 mmHg 57%
17:00 +25°C° 0 mm 4 m/s 742 mmHg 54%
18:00 +22°C° 0 mm 3 m/s 742 mmHg 62%
19:00 +20°C° 0 mm 2 m/s 742 mmHg 69%
20:00 +19°C° 0 mm 1 m/s 742 mmHg 76%
21:00 +18°C° 0 mm 1 m/s 743 mmHg 75%
22:00 +18°C° 0 mm 1 m/s 743 mmHg 74%
23:00 +16°C° 0 mm 1 m/s 743 mmHg 73%

12 Iulie, Duminică

Timp Temperatura Precipitaţii Vânt Presiune Umiditate
00:00 +16°C° 0 mm 1 m/s 743 mmHg 75%
01:00 +15°C° 0 mm 1 m/s 743 mmHg 77%
02:00 +15°C° 0 mm 1 m/s 743 mmHg 80%
03:00 +14°C° 0.1 mm 1 m/s 743 mmHg 81%
04:00 +14°C° 0.1 mm 1 m/s 743 mmHg 83%
05:00 +14°C° 0.1 mm 1 m/s 743 mmHg 85%
06:00 +14°C° 0.5 mm 1 m/s 743 mmHg 87%
07:00 +14°C° 0.5 mm 1 m/s 744 mmHg 90%
08:00 +14°C° 0.5 mm 1 m/s 744 mmHg 92%
09:00 +14°C° 0.5 mm 2 m/s 744 mmHg 93%
10:00 +14°C° 0.5 mm 2 m/s 744 mmHg 95%
11:00 +14°C° 0.5 mm 2 m/s 744 mmHg 96%
12:00 +14°C° 0 mm 2 m/s 744 mmHg 95%
13:00 +14°C° 0 mm 2 m/s 744 mmHg 93%
14:00 +15°C° 0 mm 2 m/s 744 mmHg 91%
15:00 +15°C° 0 mm 2 m/s 744 mmHg 89%
16:00 +15°C° 0 mm 2 m/s 744 mmHg 86%
17:00 +16°C° 0 mm 2 m/s 744 mmHg 84%
18:00 +15°C° 0 mm 2 m/s 744 mmHg 85%
19:00 +15°C° 0 mm 2 m/s 744 mmHg 86%
20:00 +15°C° 0 mm 2 m/s 744 mmHg 88%
21:00 +14°C° 0 mm 2 m/s 744 mmHg 88%
22:00 +14°C° 0 mm 2 m/s 743 mmHg 88%
23:00 +14°C° 0 mm 2 m/s 743 mmHg 88%

13 Iulie, Luni

Timp Temperatura Precipitaţii Vânt Presiune Umiditate
00:00 +14°C° 0 mm 2 m/s 743 mmHg 87%
01:00 +14°C° 0 mm 2 m/s 743 mmHg 86%
02:00 +14°C° 0 mm 2 m/s 743 mmHg 85%
03:00 +13°C° 0 mm 3 m/s 742 mmHg 85%
04:00 +13°C° 0 mm 3 m/s 742 mmHg 84%
05:00 +13°C° 0 mm 3 m/s 742 mmHg 84%
06:00 +13°C° 0 mm 3 m/s 741 mmHg 85%
07:00 +13°C° 0 mm 3 m/s 741 mmHg 85%
08:00 +13°C° 0 mm 3 m/s 741 mmHg 85%
09:00 +14°C° 0 mm 3 m/s 741 mmHg 84%
10:00 +14°C° 0 mm 3 m/s 741 mmHg 84%
11:00 +16°C° 0 mm 3 m/s 741 mmHg 83%
12:00 +16°C° 0 mm 3 m/s 741 mmHg 82%
13:00 +17°C° 0 mm 3 m/s 740 mmHg 80%
14:00 +18°C° 0 mm 3 m/s 740 mmHg 78%
15:00 +18°C° 0 mm 3 m/s 740 mmHg 79%
16:00 +18°C° 0 mm 3 m/s 739 mmHg 81%
17:00 +18°C° 0 mm 3 m/s 739 mmHg 82%
18:00 +17°C° 0 mm 3 m/s 739 mmHg 84%
19:00 +15°C° 0 mm 4 m/s 739 mmHg 86%
20:00 +15°C° 0 mm 4 m/s 739 mmHg 88%
21:00 +14°C° 0.1 mm 3 m/s 738 mmHg 90%
22:00 +14°C° 0.1 mm 3 m/s 738 mmHg 93%
23:00 +13°C° 0.1 mm 3 m/s 738 mmHg 95%

14 Iulie, Marţi

Timp Temperatura Precipitaţii Vânt Presiune Umiditate
00:00 +13°C° 0.3 mm 3 m/s 738 mmHg 96%
01:00 +14°C° 0.3 mm 3 m/s 737 mmHg 97%
02:00 +14°C° 0.3 mm 3 m/s 737 mmHg 98%
03:00 +14°C° 0.2 mm 3 m/s 737 mmHg 98%
04:00 +14°C° 0.2 mm 3 m/s 737 mmHg 98%
05:00 +14°C° 0.2 mm 3 m/s 737 mmHg 97%
06:00 +14°C° 0.2 mm 3 m/s 736 mmHg 96%
07:00 +14°C° 0.2 mm 3 m/s 736 mmHg 95%
08:00 +16°C° 0.2 mm 3 m/s 736 mmHg 94%
09:00 +16°C° 0.1 mm 3 m/s 736 mmHg 94%
10:00 +16°C° 0.1 mm 3 m/s 736 mmHg 94%
11:00 +16°C° 0.1 mm 3 m/s 736 mmHg 94%
12:00 +15°C° 0 mm 4 m/s 735 mmHg 93%
13:00 +15°C° 0 mm 4 m/s 735 mmHg 92%
14:00 +15°C° 0 mm 4 m/s 735 mmHg 91%
15:00 +15°C° 0 mm 4 m/s 735 mmHg 91%
16:00 +15°C° 0 mm 4 m/s 734 mmHg 91%
17:00 +15°C° 0 mm 4 m/s 734 mmHg 92%
18:00 +15°C° 0.1 mm 4 m/s 734 mmHg 92%
19:00 +15°C° 0.1 mm 4 m/s 733 mmHg 93%
20:00 +16°C° 0.1 mm 5 m/s 733 mmHg 93%
21:00 +16°C° 1.2 mm 5 m/s 733 mmHg 94%
22:00 +16°C° 1.2 mm 5 m/s 732 mmHg 96%
23:00 +16°C° 1.2 mm 5 m/s 732 mmHg 98%
Arată mai mult